Theta_e
312 313 316 312 316 315 317 318 314 316 320 325 325 328 327 328 329 327 326 330 338 341 341 338 338 338 342 344 342 339 336 334 334 332 333 324 331 335 334 334 334 333 332 331 330 330 329 330 329
315 317 314 312 317 318 318 314 316 317 322 325 325 328 331 330 331 331 332 331 331 341 341 341 337 336 340 343 342 340 338 334 333 336 335 332 333 333 332 331 332 331 331 330 329 328 327 327 327
317 318 317 316 315 318 318 315 316 315 319 322 325 326 327 334 331 330 331 328 331 337 341 340 338 337 338 343 343 341 340 336 337 335 331 329 332 333 331 332 331 330 331 330 329 327 325 324 320
315 313 311 317 317 316 316 316 314 314 320 325 325 328 325 324 327 326 326 328 330 334 342 341 337 336 336 342 343 341 339 338 336 334 331 332 331 332 330 331 330 329 329 332 330 323 310 310 309
311 312 316 316 316 314 313 314 313 315 320 327 326 327 327 326 325 326 329 331 332 334 338 339 336 335 335 340 341 341 338 335 331 332 330 332 332 330 329 330 330 331 331 330 328 315 310 308 310
315 312 316 316 314 313 313 314 314 319 321 327 328 328 327 325 326 327 330 330 333 333 334 333 332 330 334 333 339 340 339 333 329 329 332 332 331 328 329 330 331 329 328 329 321 312 309 308 309
315 315 315 314 315 315 315 315 322 323 326 327 326 328 328 326 327 331 332 331 333 330 331 331 330 331 325 333 332 334 336 331 331 331 332 331 328 328 329 330 328 325 326 324 319 313 309 311 309
313 315 315 314 316 316 314 315 319 322 321 325 326 330 329 324 331 331 331 330 332 328 328 328 329 332 327 332 333 330 329 334 332 330 332 331 329 329 329 328 325 320 322 322 317 315 312 312 311
309 316 316 316 314 317 313 315 317 322 326 327 327 327 325 330 331 331 331 331 331 331 329 328 328 330 331 329 330 331 332 334 334 333 331 330 331 330 328 326 318 320 322 320 317 315 314 312 312
314 316 316 314 314 315 315 314 314 321 325 326 327 326 326 332 331 331 331 331 330 330 330 328 326 325 326 329 328 330 334 334 333 332 330 330 330 328 326 319 318 320 321 320 318 317 315 315 316
312 316 314 314 314 313 314 314 314 322 323 324 325 326 326 332 332 330 329 330 330 330 329 327 326 326 328 328 329 331 331 333 331 331 330 328 327 325 320 317 316 317 321 322 320 317 318 317 316
314 314 313 314 313 314 315 317 323 323 323 328 325 325 329 332 331 328 328 328 329 328 329 327 327 327 325 325 326 328 328 330 330 327 328 325 323 321 319 316 315 314 320 323 322 319 317 315 312
313 314 313 313 312 314 314 317 319 323 326 330 329 330 333 332 330 327 326 326 326 327 328 326 326 326 324 324 325 326 328 328 329 328 326 323 320 317 314 314 313 313 314 316 318 317 317 314 312
315 313 314 315 316 315 316 318 324 324 329 335 334 334 332 330 328 325 324 324 324 325 326 326 325 324 324 323 326 326 326 328 326 326 323 321 319 315 314 313 312 312 313 314 315 313 314 313 311
315 317 316 316 315 316 316 320 323 323 331 330 331 330 329 327 326 323 324 323 323 323 325 324 324 323 323 322 326 326 327 326 323 326 323 318 316 316 315 312 312 312 310 309 310 310 312 311 310
317 315 317 314 316 316 318 322 319 321 331 331 329 328 326 327 326 323 323 323 322 322 323 323 322 322 321 324 323 325 325 324 324 324 322 316 316 316 316 312 313 315 313 312 313 311 310 309 308
315 316 316 316 316 318 319 321 319 325 329 331 331 328 327 326 324 323 323 322 321 321 322 322 322 320 320 321 322 322 322 322 320 324 321 317 316 316 317 316 315 315 314 314 314 310 308 307 306
314 318 317 318 317 316 317 318 318 319 325 326 326 329 327 326 324 323 322 321 320 321 322 321 320 320 320 319 321 320 320 320 321 322 321 318 317 316 316 317 316 316 316 315 316 312 309 309 308
315 316 318 317 316 316 317 317 318 317 323 325 327 329 328 325 321 322 322 321 320 320 320 321 320 320 319 319 320 321 321 320 318 317 316 321 319 317 316 316 316 315 316 317 317 314 312 310 308
317 318 318 317 315 316 318 319 319 318 321 323 325 328 328 324 321 322 321 321 320 319 319 319 320 320 320 320 319 319 320 322 321 320 318 318 319 317 317 316 316 316 316 317 317 316 315 314 310
318 319 318 317 316 316 318 320 320 319 321 323 324 326 327 325 323 322 320 320 320 319 319 318 319 319 319 320 320 318 319 321 318 317 319 318 317 316 316 316 316 316 316 316 316 317 317 317 314
318 316 317 317 318 316 318 323 320 321 319 322 324 325 326 324 322 321 319 319 320 319 319 318 318 318 319 319 320 318 318 320 319 316 317 319 316 316 317 316 316 316 316 317 317 319 317 317 316
317 317 317 318 318 319 320 322 321 317 321 321 321 324 325 325 323 322 321 319 318 319 318 319 318 317 318 320 319 319 318 318 320 319 319 319 319 317 316 316 317 320 320 320 321 320 320 320 318
317 317 318 318 320 324 322 321 322 321 321 321 321 323 325 325 323 322 321 319 318 318 318 317 317 317 317 319 319 319 320 319 319 319 318 318 319 321 321 321 321 322 322 322 322 322 322 321 319
317 319 321 324 324 324 320 321 322 320 319 319 321 321 325 325 325 323 322 320 319 318 317 317 316 318 317 316 318 317 317 318 317 317 316 316 317 319 316 316 318 318 317 318 319 321 321 321 320
318 320 321 320 325 324 320 323 322 321 320 320 319 318 323 325 324 325 322 321 320 318 317 316 316 317 317 317 317 316 317 317 317 316 316 316 316 315 314 314 314 314 314 315 316 319 320 321 320
317 318 318 320 322 326 323 323 321 321 321 318 318 321 325 325 325 325 323 321 320 319 317 316 315 316 317 317 316 316 316 316 316 316 316 316 316 316 315 314 314 314 314 316 319 321 321 321 321
316 317 320 319 320 322 322 324 322 322 322 321 319 320 324 325 324 325 324 322 321 319 318 316 316 316 318 317 317 317 316 316 316 315 315 315 315 315 317 317 316 316 316 318 320 321 321 320 319
314 315 318 319 321 321 323 324 322 323 322 320 321 318 321 325 325 325 325 323 322 321 319 318 317 318 317 317 317 317 317 317 317 316 317 317 317 317 317 318 318 316 317 319 320 320 321 321 320
313 314 315 318 317 323 322 322 318 322 320 320 320 319 316 321 324 324 325 324 322 321 320 319 318 318 317 317 316 316 317 317 317 317 317 317 316 316 316 316 316 316 317 318 320 321 319 319 319
Wind_Speed
7 6 4 2 1 1 1 3 2 4 3 3 2 3 3 4 6 4 2 4 4 14 16 21 23 21 27 35 41 42 42 45 43 41 40 41 41 38 35 33 33 33 28 26 26 25 25 25 26
8 6 3 2 2 1 0 2 7 8 4 1 3 2 3 6 3 4 1 3 10 14 19 19 27 38 32 37 43 44 45 47 45 42 42 41 41 38 34 34 34 33 30 28 26 25 25 25 24
7 3 1 3 2 1 2 4 8 4 6 5 2 2 2 4 2 2 2 4 4 16 21 21 28 32 32 37 41 44 44 46 45 44 41 43 41 39 38 35 34 33 31 28 25 25 24 24 25
3 2 3 1 3 2 3 6 6 7 1 5 1 5 3 5 2 3 9 11 8 16 22 27 28 30 36 35 41 44 45 45 43 42 42 40 41 40 39 36 34 32 28 25 26 25 26 24 25
4 1 2 1 3 3 5 5 3 4 4 5 6 3 4 2 5 6 9 11 11 15 23 26 22 19 27 41 42 44 47 48 45 41 39 42 43 42 38 35 33 31 27 26 26 27 26 26 26
2 1 2 3 4 4 6 7 3 4 4 1 4 3 5 3 2 6 8 11 9 14 18 14 15 20 25 29 41 45 44 46 45 41 42 44 42 41 38 37 33 30 27 29 30 28 26 27 27
3 3 3 3 3 5 4 3 3 4 5 6 3 4 2 3 1 3 5 9 10 9 16 15 11 28 26 23 28 37 44 44 43 43 41 42 45 43 39 36 32 30 29 29 30 28 28 27 27
4 2 4 4 3 5 4 2 2 5 5 2 5 6 4 1 1 3 7 9 6 5 10 11 12 28 34 23 25 28 33 39 42 45 43 44 44 43 42 34 30 28 27 30 30 29 28 27 27
3 2 4 5 6 4 2 5 0 1 4 4 6 4 2 5 3 2 4 6 7 5 9 9 11 18 26 29 26 24 31 33 38 43 47 46 39 37 39 33 30 28 29 31 30 29 28 26 24
4 3 8 6 6 5 9 5 4 3 5 6 7 7 6 6 5 3 3 5 5 8 12 10 7 10 17 29 31 25 36 35 38 38 43 36 36 35 37 35 31 30 30 32 31 28 28 25 20
5 6 5 6 10 7 5 7 3 4 9 10 8 4 10 8 6 4 4 6 9 12 13 15 10 10 15 23 33 29 32 33 36 38 31 37 34 39 39 37 30 30 31 28 28 28 21 22 18
4 9 7 4 5 4 5 3 5 10 11 2 7 3 9 8 5 4 5 8 8 11 15 18 14 14 14 14 24 33 42 35 39 37 32 37 36 38 37 36 31 32 26 29 26 24 24 22 20
6 6 6 10 6 7 5 12 11 15 7 7 7 7 8 6 5 5 4 7 8 10 15 17 16 13 12 13 25 31 42 43 39 41 37 34 36 40 40 38 35 32 32 30 29 28 25 22 20
2 6 10 7 9 6 8 7 2 3 9 9 9 8 5 5 4 3 3 5 7 6 8 15 17 10 11 5 30 36 40 39 42 37 41 36 37 42 39 37 33 32 31 30 28 26 23 21 20
3 7 8 8 5 4 7 5 7 1 10 9 6 4 4 5 4 5 4 4 5 4 8 15 14 13 10 7 20 36 39 38 43 36 43 44 43 40 37 35 31 29 28 27 24 21 21 21 19
2 1 6 1 3 3 2 7 3 2 10 11 8 5 4 6 5 3 3 4 3 6 10 15 16 17 14 16 22 37 42 35 33 36 41 40 39 38 37 34 30 27 27 24 22 21 20 18 20
1 7 6 7 1 3 3 8 5 2 8 10 11 9 7 6 6 3 4 5 4 7 12 15 17 20 19 20 22 27 38 29 30 30 38 38 37 37 37 34 29 26 25 23 21 21 18 18 17
8 5 5 8 3 1 6 14 15 6 10 9 10 9 9 8 6 7 6 7 7 11 16 21 21 23 21 23 19 23 24 26 25 28 27 37 37 35 32 31 30 26 25 23 20 20 18 17 16
6 5 6 5 5 4 9 10 16 9 9 8 10 11 10 10 7 9 8 8 8 10 15 20 24 25 25 28 24 25 26 26 27 30 30 30 33 33 31 30 29 26 25 23 21 20 18 17 17
7 8 12 12 2 7 8 16 16 5 7 6 12 12 12 10 10 10 11 10 11 13 13 17 23 30 25 23 22 24 21 22 29 35 36 26 23 25 29 27 25 28 25 22 23 23 16 11 19
16 17 13 13 9 3 6 6 5 2 4 6 8 12 12 15 14 12 13 14 14 13 16 16 20 27 29 28 25 25 19 18 27 27 30 29 27 26 25 26 29 29 24 26 27 25 22 14 18
14 11 13 11 5 6 5 8 8 13 10 8 9 13 13 15 13 13 15 17 16 15 15 16 18 24 29 32 30 33 26 24 26 33 34 31 37 37 34 33 31 28 28 28 28 26 28 22 16
12 7 13 11 8 5 6 6 2 2 12 12 10 12 14 16 17 16 16 20 19 18 18 17 18 24 25 31 31 30 24 23 24 31 36 38 35 35 33 32 31 30 31 32 28 27 29 29 21
3 4 2 2 2 7 10 7 6 4 5 4 2 8 14 16 16 16 18 19 20 19 19 19 18 21 26 31 25 29 27 23 28 31 34 40 33 29 31 32 32 30 29 28 27 27 28 30 32
9 6 4 4 4 8 6 7 14 7 9 9 11 6 11 15 16 16 17 18 22 24 23 21 21 22 23 27 27 29 27 24 22 27 28 26 32 30 31 30 30 29 29 29 27 28 32 34 34
14 13 4 6 6 7 4 7 6 8 8 8 8 6 9 15 16 17 19 21 23 25 25 25 27 24 24 26 29 28 31 26 22 25 27 28 28 30 35 33 32 31 30 30 29 32 35 31 33
6 8 14 2 1 1 4 5 7 8 9 4 5 6 11 13 17 19 17 23 24 26 27 27 26 27 28 28 28 30 33 29 28 29 28 28 31 31 34 34 32 32 33 32 29 29 30 28 31
7 8 5 6 7 11 5 5 7 3 5 6 6 6 8 11 13 15 17 23 25 25 25 26 27 29 31 30 30 30 31 35 33 31 35 36 37 37 34 33 34 32 31 31 27 25 26 29 31
5 10 2 3 4 8 5 6 8 13 11 6 7 4 7 11 14 15 15 20 22 22 25 28 29 29 30 31 31 31 32 33 35 36 36 36 35 36 35 34 31 35 36 32 29 37 39 35 36
5 3 11 10 8 3 5 12 2 11 6 5 7 5 4 8 12 14 15 19 22 25 27 29 28 30 29 29 29 32 32 33 35 38 37 33 34 34 36 35 35 39 38 40 40 38 33 36 37
Wind_Direction
169 167 151 53 173 17 197 230 291 242 234 201 207 210 254 282 246 264 130 209 224 198 201 202 184 189 173 166 171 171 169 165 163 158 153 143 148 147 145 145 140 134 131 128 124 123 121 119 118
147 145 86 98 125 145 290 218 230 233 246 278 237 197 249 267 252 275 213 341 216 201 203 202 195 192 182 165 170 170 167 167 164 155 151 147 149 148 148 144 137 135 131 126 124 122 120 120 122
147 143 131 89 121 209 264 221 263 253 248 248 214 222 235 230 233 274 185 347 234 212 204 206 206 196 186 168 166 169 165 165 161 159 155 152 150 149 147 143 139 135 130 125 127 122 120 124 126
147 78 84 203 222 232 236 309 260 300 273 209 196 265 240 228 204 194 287 289 261 216 206 209 213 202 192 177 168 167 167 165 162 158 155 154 149 149 146 145 140 138 136 135 133 127 126 127 124
61 79 95 249 256 252 250 272 258 273 284 196 176 243 244 209 248 284 299 296 257 225 213 219 210 185 212 178 171 169 171 170 166 162 158 152 150 150 148 145 143 143 145 140 139 132 127 125 125
91 103 147 230 242 253 264 252 248 236 237 277 222 247 251 142 319 306 311 292 273 236 208 224 233 185 207 198 175 170 171 171 168 165 158 152 151 148 150 147 149 147 146 149 142 132 130 125 126
155 147 202 213 258 284 237 195 227 272 258 246 169 245 270 229 286 311 328 316 298 249 211 222 194 190 203 208 201 181 175 170 165 161 154 154 154 150 150 149 150 150 154 150 142 137 132 130 125
123 135 164 216 212 269 250 267 239 218 276 113 180 237 255 113 115 350 338 330 312 229 213 205 181 187 187 206 192 191 184 169 166 159 156 154 151 151 150 152 151 154 156 154 146 141 137 131 128
146 179 212 206 182 248 189 300 265 101 247 225 198 225 123 138 136 77 331 324 317 248 216 183 163 172 190 193 203 193 183 173 164 156 156 151 146 146 150 147 150 153 156 154 150 145 139 132 128
192 206 214 207 196 252 296 267 264 223 226 249 243 206 157 166 164 198 251 279 279 248 221 215 199 188 190 196 204 207 183 175 165 154 147 144 146 147 145 147 153 153 152 156 155 149 142 134 134
187 235 206 222 224 251 270 286 225 224 270 246 254 230 176 185 178 190 238 242 242 242 229 223 231 195 184 186 203 189 178 170 167 153 150 143 146 150 145 148 151 149 154 155 155 153 147 144 150
228 253 227 258 206 181 261 266 259 226 269 182 220 169 170 187 183 195 232 257 257 243 226 226 209 194 200 203 207 200 190 185 162 161 153 140 145 148 148 153 153 153 157 159 162 160 153 152 150
238 257 228 248 244 258 253 257 264 256 192 162 146 158 177 181 176 179 216 257 257 248 219 208 205 209 220 231 226 194 170 170 164 159 155 145 148 153 157 159 157 159 162 165 164 158 156 156 154
232 253 271 282 269 248 257 268 215 352 162 154 158 179 208 215 207 169 191 244 260 256 197 197 204 194 203 216 186 172 159 158 163 165 161 155 154 155 158 160 159 159 159 161 163 158 158 159 162
275 283 294 255 258 246 179 242 235 239 167 159 186 201 208 225 205 220 210 217 253 244 178 177 183 169 170 78 149 146 154 148 159 160 167 165 160 158 158 164 160 160 161 162 158 156 164 164 166
293 247 283 19 188 65 245 282 263 141 180 183 184 210 220 216 217 214 175 191 210 201 148 170 161 162 146 138 106 128 134 143 151 172 169 167 163 164 164 167 164 164 165 165 158 160 167 169 172
204 255 246 298 274 121 207 291 289 194 192 190 191 193 209 213 200 169 168 171 173 160 145 159 166 163 153 142 126 133 142 151 164 170 171 169 173 171 171 171 172 170 169 169 164 171 172 175 176
207 220 231 245 169 85 274 270 289 245 237 208 195 193 196 212 217 174 173 162 165 154 156 155 165 165 159 150 136 140 147 159 164 167 173 168 181 181 181 175 179 178 175 176 174 182 186 187 186
195 221 239 250 236 281 278 284 295 291 250 216 197 195 198 205 201 166 166 163 162 159 156 165 165 164 161 161 153 154 157 174 173 171 189 181 186 185 185 184 182 187 188 187 186 194 197 197 191
219 233 251 296 350 217 291 292 288 235 254 242 199 203 197 190 194 172 173 173 172 161 163 167 172 173 162 162 168 163 166 170 172 181 193 199 191 190 197 193 194 199 197 197 200 203 205 204 196
225 231 244 254 330 267 291 268 288 272 264 259 205 204 199 192 190 184 179 190 175 173 173 173 180 177 177 176 168 163 179 171 172 175 178 195 200 204 212 210 207 208 206 212 211 212 216 210 210
234 219 240 257 284 280 3 294 262 278 261 246 222 201 197 192 194 188 188 189 188 179 179 180 182 179 180 186 175 176 181 172 182 185 195 185 195 208 218 212 210 214 219 220 221 223 225 223 214
238 189 207 227 243 278 257 270 281 276 282 275 239 208 197 197 190 193 190 188 192 185 181 183 179 180 181 179 182 183 189 192 182 185 196 200 203 204 210 212 214 217 223 227 229 230 232 236 229
230 204 91 85 172 254 228 236 272 237 222 260 209 211 185 196 192 198 189 184 186 188 186 184 182 184 188 188 185 187 189 183 181 186 188 195 201 209 215 219 218 221 226 231 236 240 244 244 241
209 171 193 201 203 244 202 205 250 260 258 251 284 238 192 189 193 190 191 186 187 188 189 190 192 191 193 194 195 199 198 194 189 188 194 202 208 215 218 219 224 228 234 240 246 250 252 247 243
203 205 193 214 220 244 150 225 252 245 277 262 262 240 190 186 196 200 195 192 190 191 192 191 194 198 197 199 203 205 207 207 205 203 204 208 212 221 228 232 238 244 252 257 259 257 258 254 251
171 197 213 231 28 276 206 262 283 269 276 277 292 208 190 187 193 199 198 196 194 193 193 191 193 199 202 203 204 207 209 210 214 218 221 224 227 231 237 241 245 254 258 258 261 259 262 261 256
208 158 162 220 229 239 212 244 230 273 282 267 299 254 220 180 197 199 200 201 200 197 192 194 196 198 202 204 206 209 210 215 219 222 226 229 236 242 243 245 252 256 257 260 263 264 260 260 258
178 221 229 213 214 244 252 239 211 232 252 285 302 251 221 190 193 201 206 208 207 200 199 201 203 203 203 205 207 209 212 214 217 222 227 231 233 236 240 242 245 251 256 263 272 277 280 263 264
248 261 234 241 235 238 264 241 232 232 236 229 278 287 225 218 192 190 197 198 201 204 204 206 205 207 207 206 210 214 215 216 220 223 226 228 232 237 241 243 245 253 261 264 261 260 252 259 255